Location: Elbart
(49.6135°N, 11.9134°E)
Time: 09:12:35
(UTC+00:00)

Cosmos 2322 Rocket - Pass Details

Date: 09 April 2020
Orbit: 834 x 849 km, 71.0° (Epoch: 01 June)

Event Time Altitude Azimuth Distance (km) Brightness Sun altitude
Rises 23:18:41 0° 326° (NW) 3,404 6.1 -32.3°
Reaches altitude 10° 23:21:16 10° 319° (NW) 2,462 5.1 -32.3°
Enters shadow 23:24:18 28° 296° (WNW) 1,531 3.7 -32.3°
